Regional Weather Roundup
Issued by NWS

Home | Current Version | Previous Version | Text Only | Print | Product List | Glossary On
Versions: 1 2 3 4 5 6 7 8 9 10 11 12 13 14 15 16 17 18 19 20 21 22 23 24 25 26 27 28 29 30 31 32 33 34 35 36 37 38 39 40 41 42 43 44 45 46 47 48 49 50
000
ASUS43 KTOP 281759
RWRKS

WEATHER ROUNDUP FOR KANSAS
NATIONAL WEATHER SERVICE GOODLAND KS
100 PM CDT FRI AUG 28 2015

NOTE:  "FAIR" INDICATES FEW OR NO CLOUDS BELOW 12,000 FEET WITH NO
SIGNIFICANT WEATHER AND/OR OBSTRUCTIONS TO VISIBILITY.

KSZ001>006-013>018-027>032-041>047-281900-
NORTHWEST KANSAS

CITY           SKY/WX    TMP DP  RH WIND       PRES   REMARKS
GOODLAND       SUNNY     88  48  25 N13G25    30.07F
6HR MIN TEMP:  58; 6HR MAX TEMP:  88;

HAYS           SUNNY     88  61  40 NW15G25   29.95S
HILL CITY      SUNNY     86  60  41 NW15      29.98F
6HR MIN TEMP:  67; 6HR MAX TEMP:  87;

RUSSELL        MOSUNNY   86  65  49 NW15      29.93S
6HR MIN TEMP:  69; 6HR MAX TEMP:  86;

$$

KSZ061>065-074>080-084>089-281900-
SOUTHWEST KANSAS

CITY           SKY/WX    TMP DP  RH WIND       PRES   REMARKS
DODGE CITY     SUNNY     85  56  37 NW14G20   30.02S
6HR MIN TEMP:  67; 6HR MAX TEMP:  85;

ELKHART          N/A     86  57  37 N9          N/A
GARDEN CITY    SUNNY     86  55  34 N10       30.04F
6HR MIN TEMP:  65; 6HR MAX TEMP:  86;

GREAT BEND     SUNNY     86  64  48 NW13G18   29.94S
LIBERAL        SUNNY     86  61  42 N14G20    30.06F
$$

KSZ066>073-081>083-090>101-281900-
SOUTHEAST KANSAS

CITY           SKY/WX    TMP DP  RH WIND       PRES   REMARKS
CHANUTE        CLOUDY    70  65  84 S17       29.99F
6HR MIN TEMP:  67; 6HR MAX TEMP:  70; 6HR PCP:  0.13;

COFFEYVILLE    CLOUDY    72  66  81 S12       29.99F
6HR MIN TEMP:  66; 6HR MAX TEMP:  72; 6HR PCP: TRACE;

HUTCHINSON     PTSUNNY   87  70  56 W10       29.92F
6HR MIN TEMP:  73; 6HR MAX TEMP:  87; 6HR PCP: TRACE;

NEWTON         SUNNY     82  66  57 S17       29.95F
WICHITA INTL   MOSUNNY   84  68  58 S15       29.93F
6HR MIN TEMP:  71; 6HR MAX TEMP:  84; 6HR PCP:  0.01;

WICHITA JABRA  SUNNY     81  68  64 S13       29.93F
6HR MIN TEMP:  70; 6HR MAX TEMP:  82; 6HR PCP: TRACE;

WINFIELD       PTSUNNY   81  66  60 S16G23    29.97F
6HR MIN TEMP:  69; 6HR MAX TEMP:  81; 6HR PCP: TRACE;

$$

KSZ007>012-019>026-033>040-048>060-102>105-281900-
NORTHEAST KANSAS

CITY           SKY/WX    TMP DP  RH WIND       PRES   REMARKS
CONCORDIA      CLOUDY    76  69  79 NW10      29.91S
6HR MIN TEMP:  70; 6HR MAX TEMP:  78;

EMPORIA        SUNNY     79  67  66 S23       29.93F
6HR MIN TEMP:  68; 6HR MAX TEMP:  79; 6HR PCP:  0.07;

LAWRENCE       PTSUNNY   78  67  68 S14G25    29.93F
6HR MIN TEMP:  68; 6HR MAX TEMP:  78; 6HR PCP:  0.06;

MANHATTAN      PTSUNNY   85  70  60 SW13G22   29.87F
6HR MIN TEMP:  71; 6HR MAX TEMP:  85; 6HR PCP: TRACE;

OLATHE IND     CLOUDY    72  66  81 S17G26    29.96F
6HR MIN TEMP:  68; 6HR MAX TEMP:  72; 6HR PCP:  0.02;

OLATHE EXE     CLOUDY    72  65  78 S14G21    29.96F
6HR MIN TEMP:  67; 6HR MAX TEMP:  72; 6HR PCP: TRACE;

SALINA         MOSUNNY   87  70  56 NW8       29.88F
6HR MIN TEMP:  72; 6HR MAX TEMP:  87;

TOPEKA BILLARD PTSUNNY   82  68  62 S10G17    29.91F
6HR MIN TEMP:  69; 6HR MAX TEMP:  82; 6HR PCP:  0.09;

TOPEKA FORBES  SUNNY     82  70  66 S10       29.92S
6HR MIN TEMP:  69; 6HR MAX TEMP:  82; 6HR PCP:  0.13;

$$


USA.gov is the U.S. government's official web portal to all federal, state and local government web resources and services.